RH
24 24 23 22 21 20 19 17 14 10 8 8 8 9 11 13 14 17 21 29 36 42 45 47 51 56 61 63 66 69 72 67 60 52 46 42 37 33 29 29 31 33 35 35 34 33 32 31 31 30 30 30 28 27 28 28 27 26 26 26 27 28 28 25 24 24 24 24 23 22 21 21 21 21 21 21 22 23 25 25 23 21 21 22 24 25 26 26 27 28 29 27 26 25 24 22 21 20 19 19 22 24 24
26 26 26 25 24 23 21 19 17 14 11 9 8 9 10 13 14 16 18 25 34 42 46 48 50 53 58 62 66 69 71 68 62 57 52 47 41 35 32 31 31 33 35 35 34 33 32 31 30 29 29 29 28 27 27 28 28 27 28 27 27 28 28 27 25 24 24 24 22 21 21 21 22 23 23 23 24 25 25 24 21 19 20 21 22 23 25 27 28 28 29 28 27 25 24 22 21 20 20 19 21 22 23
27 27 27 27 26 24 23 22 20 17 14 11 9 9 10 13 14 16 17 22 31 40 47 49 51 52 56 60 65 69 71 68 64 61 59 53 46 39 35 34 33 33 34 35 35 35 34 32 30 28 27 28 28 26 26 29 29 28 29 28 28 28 29 28 26 25 25 23 22 21 21 22 24 25 25 26 28 28 27 24 20 18 19 20 21 22 25 27 28 29 29 30 30 28 25 24 22 21 19 19 20 21 22
27 27 26 26 26 25 24 23 22 20 16 13 11 10 10 12 14 16 16 20 27 37 46 50 52 53 54 58 63 68 70 68 66 64 64 60 52 44 39 38 36 35 33 34 35 36 36 35 32 28 27 28 27 26 26 29 31 31 30 29 28 29 29 28 27 26 25 24 22 22 23 24 25 27 28 30 30 30 28 23 19 17 18 19 20 22 25 28 29 29 29 32 32 32 29 26 24 22 20 19 19 19 20
27 27 27 27 27 26 25 23 22 21 19 15 12 10 10 11 14 16 17 18 23 32 43 49 52 53 53 56 61 66 69 69 67 66 67 66 59 50 43 41 40 38 36 34 35 36 38 37 34 31 30 29 28 27 26 29 32 32 31 29 28 28 28 28 27 26 25 24 23 23 24 25 26 29 31 32 32 31 28 22 19 17 17 19 20 20 23 27 29 29 29 31 33 33 32 29 26 22 20 19 18 18 19
27 27 27 27 27 27 26 24 22 21 20 17 14 12 10 11 13 15 17 17 21 27 38 47 52 53 53 54 59 64 67 68 68 68 69 69 65 57 48 45 44 42 40 37 35 35 37 38 36 33 33 32 30 28 28 30 32 33 31 29 28 28 27 26 25 25 24 23 24 24 25 25 28 31 35 34 33 30 26 21 19 17 18 19 19 20 22 25 27 28 29 30 32 33 33 31 27 23 20 18 18 18 18
26 26 25 26 26 27 26 25 23 22 21 19 16 13 11 12 13 15 17 17 19 23 32 43 50 53 53 54 58 62 65 67 68 69 70 71 68 62 54 49 47 46 45 41 38 36 36 38 38 37 37 35 33 31 30 31 32 32 31 30 29 27 26 24 23 23 23 23 23 24 25 25 29 33 35 34 33 30 24 20 18 18 19 19 19 20 21 24 25 26 27 29 30 31 31 30 27 23 19 18 18 18 18
25 25 24 24 26 27 27 26 25 23 22 21 18 15 12 12 13 14 16 16 18 21 28 39 48 53 52 53 56 60 64 66 68 69 71 73 71 66 59 52 50 50 50 46 41 37 36 38 39 40 39 38 36 34 34 32 32 32 31 31 30 27 24 22 21 21 22 22 23 24 26 25 28 33 35 34 32 29 22 18 17 16 18 18 18 18 20 23 24 25 25 27 28 30 30 29 26 22 19 18 18 17 17
24 23 21 21 23 25 28 27 26 24 23 22 20 17 13 12 13 14 16 16 17 21 26 35 44 51 52 52 55 59 62 65 67 69 71 74 73 69 62 56 54 55 56 51 45 39 36 38 39 40 41 40 40 39 38 36 34 33 33 32 31 28 23 21 20 21 21 21 22 23 26 25 27 31 35 33 30 27 21 17 16 15 15 16 16 17 17 20 22 23 23 25 27 29 30 28 26 22 20 18 17 17 17
25 23 20 19 20 22 26 27 27 26 24 23 21 18 15 13 13 14 15 15 16 19 24 31 40 48 52 52 54 58 61 64 66 69 71 73 74 72 65 60 58 59 60 55 49 43 38 37 39 41 42 43 45 45 42 40 37 35 35 35 32 28 24 21 20 20 21 21 20 21 25 25 26 28 33 31 29 25 21 17 16 16 15 15 15 15 16 17 19 21 22 24 26 28 29 28 26 23 20 18 17 17 17
24 23 20 19 19 20 23 25 27 27 25 24 22 20 17 14 13 13 14 14 15 18 22 28 36 45 52 51 54 57 61 62 65 67 71 74 74 73 68 64 61 61 63 60 54 47 41 40 40 41 44 46 48 49 47 45 42 40 40 39 35 30 25 22 21 21 21 21 20 20 23 25 25 27 31 29 27 24 20 17 17 19 19 17 16 15 15 16 17 19 22 23 25 28 29 28 26 23 21 19 18 17 18
23 23 20 19 19 20 21 24 26 28 27 25 23 21 18 15 14 13 13 12 14 17 21 26 33 41 50 50 53 57 60 61 64 66 69 73 75 75 73 68 65 64 64 61 56 51 45 44 43 43 44 47 49 51 51 49 47 46 46 43 38 32 27 24 22 22 22 21 20 20 21 24 25 26 27 28 26 23 19 18 20 23 24 22 18 16 15 15 17 18 20 23 25 27 29 28 26 23 21 19 18 19 21
22 22 21 19 19 19 21 24 26 28 28 26 23 21 19 17 14 13 12 12 13 15 20 24 30 37 47 49 53 56 59 60 62 65 68 72 75 77 76 72 68 65 64 60 56 52 48 47 45 44 44 46 49 51 53 51 50 49 50 47 41 34 29 26 25 23 22 21 20 20 20 21 23 24 25 25 24 22 19 18 20 24 27 24 21 18 16 16 17 18 20 21 24 26 27 26 25 23 21 19 19 21 23
23 22 20 19 19 19 19 22 25 27 27 25 23 22 20 18 15 13 12 12 12 14 19 23 27 34 43 47 52 57 60 59 61 64 67 71 75 78 79 76 72 68 64 59 55 52 48 48 47 45 45 46 48 50 51 51 51 50 50 47 42 37 33 30 27 26 24 23 22 21 21 21 21 21 22 23 22 21 19 18 20 23 27 25 23 21 19 18 18 19 20 21 22 23 24 24 23 22 21 20 21 22 24
24 22 20 20 19 19 19 20 22 23 24 22 21 20 19 18 15 13 11 11 12 13 17 21 25 31 39 44 51 57 62 60 61 63 66 70 74 79 82 79 75 71 66 61 56 52 49 48 47 47 47 46 47 48 50 50 50 50 50 48 44 41 37 34 31 30 28 26 25 24 23 23 21 20 20 21 20 19 19 18 19 21 26 24 23 21 20 19 19 20 21 21 21 22 22 22 22 22 21 20 22 23 23
25 23 20 20 20 20 20 19 19 20 20 19 18 18 18 17 15 14 12 11 11 12 15 19 23 28 35 41 48 56 63 62 62 63 65 69 74 79 83 82 79 75 69 64 58 53 49 48 47 47 48 47 47 48 49 49 50 51 50 49 47 44 41 38 36 34 32 31 30 29 27 25 24 22 20 20 19 19 18 18 18 19 22 22 21 21 20 20 20 21 22 22 22 21 22 22 22 21 21 22 23 24 22
26 24 22 21 21 21 21 20 19 18 18 18 18 18 18 17 16 15 13 11 11 12 14 19 23 27 32 37 44 53 63 64 64 63 65 68 73 78 85 84 82 79 74 68 61 55 50 47 47 47 48 48 49 50 49 49 49 50 50 50 48 46 44 43 41 39 37 36 35 33 31 29 26 25 22 21 20 19 19 19 19 18 18 19 20 20 20 20 21 21 22 22 22 22 22 22 22 22 22 23 24 23 21
25 25 23 23 22 22 22 20 19 18 18 18 18 18 18 18 17 16 15 12 11 12 14 19 23 26 29 33 40 51 63 66 66 65 64 67 72 79 85 86 84 81 78 72 65 57 51 48 47 47 48 51 53 55 52 50 49 49 50 50 48 47 47 46 44 43 41 40 39 38 36 32 29 27 24 23 22 22 22 21 21 20 20 19 20 20 21 20 21 22 22 22 23 23 23 23 23 23 23 23 23 22 21
24 24 23 23 23 23 23 21 19 18 18 18 18 18 19 19 18 17 16 13 12 12 15 20 23 26 27 30 36 46 62 67 68 68 65 66 72 78 83 84 85 84 80 75 68 61 54 49 48 47 48 53 57 59 55 52 50 49 50 49 48 47 47 47 46 45 44 44 43 42 41 37 33 30 26 25 25 25 25 24 23 22 24 21 21 21 21 21 22 23 22 22 23 24 26 25 24 24 24 23 22 21 21
22 22 22 22 23 24 23 22 20 19 18 17 17 18 18 18 18 18 17 15 13 13 16 20 23 25 26 29 34 43 58 67 71 70 67 67 71 76 81 82 85 86 83 78 72 65 57 51 49 48 48 53 58 59 55 51 49 49 49 48 47 46 46 46 46 46 47 46 46 46 45 42 39 35 31 28 27 27 27 26 24 24 25 23 22 21 22 21 22 22 21 22 23 25 28 27 26 25 24 23 22 21 22
22 21 21 21 22 23 24 23 21 19 18 18 17 17 17 18 18 18 18 16 14 14 16 21 24 25 26 28 32 41 54 66 72 73 69 68 70 74 79 83 85 86 85 81 76 69 61 54 51 49 49 53 56 57 52 49 49 49 49 47 46 45 45 45 46 48 49 48 48 48 48 46 44 42 38 34 30 28 29 27 25 24 26 24 23 23 23 22 21 21 22 23 24 25 27 27 26 25 25 24 23 22 22
22 21 21 20 20 21 23 23 23 21 19 18 18 17 17 17 18 18 18 17 15 15 17 21 24 25 25 27 31 38 51 65 73 75 72 70 69 72 77 82 83 84 86 84 79 73 65 58 54 51 50 54 56 56 50 48 48 49 49 47 45 44 44 45 46 49 51 50 49 49 49 49 48 46 44 40 35 31 31 29 26 24 25 23 23 24 25 23 22 22 22 23 25 25 26 26 26 26 26 26 26 25 24
24 23 22 20 20 20 20 22 22 22 21 20 19 18 17 17 17 18 18 18 16 16 17 22 24 26 25 26 29 36 47 63 72 76 75 72 71 71 73 80 82 83 86 86 82 77 70 63 57 54 53 56 58 56 50 48 48 48 48 46 45 44 45 45 47 49 52 51 50 49 49 50 49 49 48 45 40 35 33 31 28 26 26 24 24 26 28 26 24 23 24 25 26 27 27 27 27 27 28 28 28 28 27
27 25 24 22 20 19 18 19 19 20 20 21 20 19 18 17 17 18 19 18 17 17 18 22 25 26 25 26 28 33 43 60 71 77 78 76 73 72 72 78 82 85 88 88 85 80 75 69 63 57 53 57 58 56 52 49 48 48 48 46 45 45 45 45 47 49 51 51 50 49 49 49 49 50 49 48 45 40 34 32 30 30 29 26 26 28 30 30 28 26 26 27 29 30 29 29 29 29 30 31 31 31 30
29 28 28 25 23 20 20 19 18 18 18 20 21 21 20 19 18 18 18 18 17 17 18 23 25 26 26 25 27 30 39 56 70 78 80 78 76 74 72 77 82 86 89 89 86 83 80 75 68 62 55 55 55 54 51 48 48 48 47 46 45 45 45 46 48 50 51 51 50 49 49 49 49 49 50 49 48 44 38 34 34 33 32 30 30 30 31 32 31 29 28 29 31 32 32 32 32 32 33 34 34 33 32
32 30 31 29 28 26 23 23 22 20 19 23 25 26 24 22 21 21 21 19 17 17 19 23 25 27 26 25 26 28 36 52 66 77 81 80 79 77 75 78 81 85 89 89 88 86 84 80 74 67 60 55 52 51 49 48 48 48 47 46 45 45 45 46 48 51 52 51 50 50 49 49 49 49 49 49 49 47 41 39 38 37 35 33 33 32 33 33 33 32 30 31 33 35 35 35 35 35 35 36 36 35 33
36 34 33 32 32 32 30 29 28 26 25 27 29 31 29 27 24 23 24 21 19 18 19 23 26 27 27 26 25 27 33 48 63 76 81 81 81 80 78 79 80 83 88 90 90 89 87 83 78 72 64 57 53 50 48 48 48 48 48 46 46 45 45 45 48 51 52 51 50 50 49 49 49 49 49 49 48 47 44 43 42 40 38 36 35 34 34 35 34 33 31 32 34 36 37 37 37 37 37 37 37 36 34
38 38 37 37 37 36 35 35 33 31 30 30 33 35 33 31 29 27 26 24 23 22 23 25 26 28 28 27 26 26 29 43 60 74 81 82 83 83 82 81 83 85 88 91 92 91 88 84 79 73 67 60 54 51 49 49 49 49 48 47 46 46 45 44 46 50 53 52 51 51 51 50 49 48 48 47 46 45 44 45 45 44 41 39 37 37 36 36 36 35 32 33 36 38 38 38 39 39 39 38 38 37 35
39 40 40 41 41 40 39 39 37 34 32 32 33 35 36 35 34 33 31 30 29 29 29 29 28 29 28 28 27 26 26 37 55 71 79 82 84 85 85 83 84 86 90 92 93 92 90 84 78 72 66 61 56 53 51 51 51 50 50 48 47 47 46 45 45 48 52 53 52 52 53 51 50 49 49 46 43 41 42 46 47 46 44 42 41 39 38 38 37 36 33 34 36 38 38 39 39 39 39 39 39 38 36
41 42 43 44 44 44 42 40 38 35 32 33 34 36 38 39 39 37 37 34 33 33 34 33 32 30 29 28 27 26 24 33 51 69 79 82 85 87 87 85 84 86 90 92 93 92 91 84 77 71 65 61 57 54 53 53 52 52 51 49 48 48 47 46 44 45 49 52 53 53 53 52 51 50 49 45 41 39 39 45 48 48 47 45 43 42 40 39 38 36 32 35 37 38 38 38 38 39 39 39 39 38 37
43 44 45 46 48 48 46 42 39 36 33 34 35 37 40 42 41 39 38 37 37 37 38 35 33 32 31 29 27 26 24 29 47 69 84 83 85 87 88 86 85 84 87 91 93 92 90 84 77 71 65 60 57 56 55 55 54 53 51 49 48 47 46 46 44 43 44 49 51 52 53 53 52 51 49 45 41 38 38 44 47 49 49 47 45 43 42 40 38 35 31 35 37 38 38 37 37 38 38 38 38 38 37
48 47 46 48 51 52 50 47 43 38 35 36 38 41 43 45 44 42 40 41 41 40 37 35 35 34 33 31 28 26 25 27 43 65 85 84 85 86 88 88 86 84 83 88 91 91 89 85 79 72 65 60 58 57 57 57 56 54 52 49 47 46 45 45 44 43 42 45 48 49 51 52 52 51 49 45 41 38 39 43 47 49 50 49 47 45 43 42 39 35 30 35 37 38 38 38 38 38 37 37 38 37 37
53 52 49 50 52 53 52 50 48 47 45 46 49 51 50 49 48 47 44 44 43 41 38 37 35 35 34 31 29 28 29 27 39 60 84 85 86 86 89 89 88 86 82 84 87 90 89 86 80 74 67 61 59 58 59 59 58 55 52 49 46 44 44 44 44 44 43 44 45 46 47 49 51 52 50 47 44 42 43 45 48 50 51 50 49 47 45 44 40 35 30 36 38 38 38 39 39 38 37 37 37 37 37
58 57 55 53 53 53 51 48 51 58 68 70 67 60 54 51 50 50 47 46 44 41 39 37 36 35 33 31 30 29 32 29 38 56 83 87 87 87 90 91 90 88 86 85 85 86 87 84 80 75 69 64 61 60 61 61 60 58 53 48 45 43 44 44 44 44 44 44 43 43 43 46 50 52 52 52 50 49 47 48 50 51 51 50 49 48 46 44 40 35 31 35 37 38 39 39 39 38 38 37 37 36 36
62 61 59 57 55 54 51 46 53 66 81 77 67 58 53 52 52 51 48 47 44 41 39 36 35 33 32 31 30 29 29 30 35 50 78 87 90 89 92 91 91 91 90 87 85 83 81 79 78 76 72 67 63 61 62 63 63 60 55 48 44 43 43 44 44 44 44 44 43 42 42 44 48 52 54 55 55 55 54 53 53 53 51 50 48 47 46 44 40 36 32 34 35 37 38 39 39 38 37 36 36 36 36
66 64 61 57 55 54 55 52 57 67 79 72 63 56 53 53 51 49 48 46 44 41 38 35 33 31 31 30 29 28 28 30 35 47 72 86 91 91 92 92 91 91 91 89 84 78 73 74 78 80 76 71 67 64 62 64 66 64 56 48 44 43 43 43 43 43 44 43 43 42 43 45 49 54 56 58 59 59 58 58 57 56 54 52 50 48 47 46 42 37 34 34 34 35 36 37 37 37 36 36 36 36 36
70 67 64 57 53 54 58 60 62 65 73 69 64 60 58 57 54 50 47 45 43 41 40 37 35 32 30 31 29 28 27 29 35 47 69 83 90 92 93 92 92 92 91 89 82 73 67 74 81 85 80 76 72 67 64 65 66 64 55 49 45 43 42 42 42 42 43 43 42 43 44 47 52 57 60 61 62 63 62 60 59 58 57 55 52 51 50 49 45 41 37 38 37 37 37 36 36 36 36 36 36 36 36
72 70 66 61 58 59 64 68 70 72 74 73 71 69 68 66 62 57 51 47 45 43 42 40 37 34 31 30 29 27 25 27 33 45 66 78 87 92 94 94 93 93 91 88 80 71 65 78 85 88 85 82 78 72 66 65 64 60 54 49 46 43 41 41 40 41 42 43 43 43 44 48 53 59 62 63 64 64 64 61 59 57 56 55 54 53 53 51 48 46 45 45 44 43 40 38 37 36 36 36 36 36 36
73 71 69 67 67 68 70 73 77 80 81 79 77 76 76 75 73 69 62 54 49 45 43 41 38 36 33 31 29 27 25 25 30 41 61 73 84 91 93 94 94 94 92 88 80 71 67 81 89 91 89 88 84 78 70 65 61 57 53 50 46 43 40 40 40 40 42 43 44 43 44 48 55 61 64 65 65 65 64 61 58 56 55 54 54 54 55 53 51 51 53 52 51 48 45 41 39 37 36 36 36 35 35
74 72 70 71 72 73 73 75 78 82 85 82 81 80 81 79 77 75 72 63 54 47 44 42 40 38 36 33 31 29 26 25 27 37 55 67 78 87 93 93 94 94 93 90 83 77 73 80 87 91 90 89 86 81 72 65 59 55 52 50 48 45 41 41 41 42 44 45 45 45 45 51 57 63 65 66 66 66 65 62 59 57 55 54 54 55 56 55 55 56 59 57 55 52 49 44 41 38 36 35 35 34 33
75 74 73 73 73 74 73 74 76 79 83 85 85 84 84 79 76 73 69 63 56 49 45 43 41 39 36 35 33 31 28 26 27 33 48 61 72 82 90 92 94 95 94 92 87 82 78 78 81 85 87 87 85 81 72 64 58 54 52 51 49 46 44 43 44 45 46 47 47 47 47 54 60 65 65 66 66 66 65 63 61 60 58 56 56 56 57 56 58 60 62 60 58 56 52 48 44 40 38 36 34 33 31
77 77 76 76 76 76 74 73 72 74 80 86 87 86 84 80 77 73 67 62 57 51 47 44 41 39 37 35 33 31 29 27 26 29 40 55 65 75 87 91 93 94 94 93 90 86 81 78 76 77 80 83 81 77 69 63 58 55 53 51 49 48 46 46 46 47 47 49 50 50 51 56 61 65 65 65 65 64 64 63 62 61 61 60 59 58 57 56 59 62 63 62 61 59 56 52 48 44 40 37 35 32 29
79 78 76 77 77 77 74 71 70 71 79 85 88 87 85 82 79 75 69 64 59 54 50 46 43 40 38 36 34 32 30 27 26 27 33 48 58 68 84 90 93 93 93 93 92 90 85 79 76 75 77 79 78 74 68 62 58 55 54 52 51 50 50 49 49 49 49 49 51 52 54 56 59 61 63 62 62 62 62 62 62 62 62 63 62 61 59 57 58 61 63 63 62 61 59 56 53 48 44 40 35 31 28
79 77 75 75 75 74 71 71 71 73 79 84 87 88 86 83 80 77 73 67 61 56 53 48 45 41 39 36 34 32 30 28 26 25 29 42 52 63 79 88 92 92 92 93 93 93 92 86 82 80 81 82 79 75 68 63 59 57 56 54 52 52 53 52 51 51 50 50 51 52 54 54 55 57 59 58 58 58 59 61 62 62 63 63 64 63 62 58 57 58 61 62 62 61 61 59 56 52 48 42 37 32 28
79 76 73 73 73 73 72 76 79 81 83 85 87 87 86 84 81 79 75 69 63 58 57 52 47 43 40 37 35 33 31 29 27 25 26 37 49 61 75 86 91 92 91 93 94 94 94 92 89 87 86 87 85 79 72 65 61 59 58 57 55 54 55 54 53 52 52 52 52 53 53 52 52 52 54 53 54 55 56 58 60 62 63 63 63 63 62 61 58 57 57 59 61 61 61 60 58 55 50 45 39 35 31
80 76 72 72 75 78 78 82 85 85 84 84 85 86 86 84 82 79 76 69 64 61 60 55 50 45 41 39 36 34 32 30 28 26 25 33 45 59 72 84 90 92 92 93 94 94 93 93 92 91 90 91 90 85 77 69 64 62 62 60 58 57 57 56 54 54 54 53 53 54 54 52 51 50 50 50 51 53 54 56 58 60 62 62 62 61 61 61 60 58 56 57 58 59 59 59 57 55 52 48 43 39 36
82 79 73 73 77 81 83 85 86 85 83 83 84 86 87 86 84 80 77 71 66 64 63 57 53 48 43 40 37 35 33 32 29 27 25 30 42 55 67 80 88 92 93 93 93 94 93 92 92 92 92 92 92 89 82 74 70 67 67 64 63 62 62 59 56 55 54 54 54 55 55 53 51 50 49 50 51 51 51 53 56 58 61 61 60 60 60 60 60 59 57 56 56 56 56 57 57 56 55 51 47 44 42
86 84 78 75 77 80 83 84 84 84 82 82 83 85 87 86 85 82 78 74 70 65 63 59 55 50 47 43 39 37 35 34 32 29 27 30 40 53 64 75 84 90 92 92 93 93 93 93 92 91 91 91 91 90 86 81 78 76 75 71 69 68 68 64 60 56 54 55 56 56 56 54 52 50 50 50 50 50 49 51 54 56 59 59 58 58 59 60 60 60 59 57 55 54 53 55 57 57 57 54 51 49 47
90 88 85 79 77 78 81 82 84 85 84 82 82 84 86 86 85 83 80 76 72 67 63 59 56 53 51 49 45 41 38 38 36 34 30 32 41 53 64 70 78 86 91 92 93 93 93 93 92 91 89 89 89 90 89 88 88 87 85 79 76 75 76 72 65 59 56 56 57 58 58 57 55 53 52 51 50 50 50 52 54 56 57 57 57 57 57 60 61 60 60 58 56 54 52 54 56 57 58 56 54 53 51
91 90 89 85 80 77 77 79 82 85 84 82 81 81 82 83 83 82 81 78 75 70 65 61 59 57 53 52 49 46 43 42 41 38 36 35 42 52 65 67 72 80 89 91 92 93 93 93 93 92 90 89 88 89 90 91 92 93 91 86 83 82 83 79 72 65 59 58 59 60 61 60 59 57 54 52 51 51 51 53 55 57 58 58 58 57 56 58 59 60 59 59 57 55 54 54 55 56 57 56 56 56 55
91 91 91 89 84 79 75 77 80 81 81 81 80 79 78 79 80 81 81 80 78 75 71 67 63 61 58 55 53 51 49 48 46 44 41 40 44 52 64 66 69 74 84 89 92 92 93 93 93 92 90 89 88 89 90 92 94 94 94 90 88 87 89 85 78 70 64 61 61 61 62 62 62 61 57 55 54 54 53 56 58 59 60 61 61 59 57 56 56 58 59 58 58 57 56 55 55 55 55 55 55 56 57
89 90 90 91 89 85 78 75 75 77 78 79 79 78 76 76 77 78 79 80 80 78 76 72 68 65 61 59 57 55 54 52 50 49 48 45 47 53 63 67 70 73 80 88 92 92 92 92 93 93 91 89 90 91 92 93 94 94 94 93 91 90 91 89 83 75 69 65 63 62 63 64 64 64 60 59 58 59 58 59 60 62 63 64 63 61 59 56 54 54 56 57 57 57 56 55 55 55 54 54 54 54 55
85 87 87 89 91 91 86 79 75 73 74 76 76 76 75 75 75 76 77 78 79 79 78 75 72 69 67 64 62 60 57 55 54 53 53 51 51 54 63 70 73 75 79 85 89 91 91 90 91 92 91 90 91 92 94 94 94 94 94 94 93 93 93 92 87 80 73 69 66 65 64 65 65 65 63 63 63 63 61 62 63 64 66 66 65 63 60 57 55 54 54 56 56 56 56 55 55 55 55 54 55 55 55
79 84 86 86 88 90 92 87 81 75 72 72 72 73 73 73 73 74 74 75 76 77 77 76 74 72 70 68 66 63 61 58 57 56 56 56 55 57 64 73 76 78 79 83 87 89 89 89 89 90 91 91 91 93 94 94 94 95 94 94 94 94 95 94 91 85 78 73 70 68 66 67 67 67 67 68 68 67 66 67 67 68 69 68 67 65 63 61 58 56 55 55 55 55 56 56 56 56 56 57 58 58 58
69 78 84 86 87 88 90 91 89 84 77 73 71 70 70 71 71 71 72 73 73 74 74 74 73 71 69 68 66 64 63 60 59 58 58 59 59 59 63 72 79 82 81 82 83 85 86 87 88 89 90 90 91 92 93 94 94 94 94 94 95 95 95 94 93 90 85 79 75 72 70 69 69 69 71 71 70 70 71 72 73 73 71 71 69 68 66 64 62 59 58 57 57 57 58 59 59 59 59 61 62 64 65
57 66 77 82 85 88 89 91 91 91 88 82 76 71 69 69 69 70 69 70 71 71 71 71 70 69 68 67 65 64 63 61 60 60 61 62 62 61 62 68 76 82 84 82 81 80 80 85 89 91 90 90 90 92 93 93 93 93 94 94 94 95 95 95 94 93 91 85 80 76 73 72 71 71 72 72 72 73 73 75 75 75 73 71 70 69 68 67 65 63 61 60 60 61 62 62 62 62 63 66 68 71 73
50 56 65 74 79 83 86 88 89 90 91 89 85 79 73 70 69 68 67 67 68 69 68 67 66 66 66 66 65 64 63 62 61 61 62 62 63 64 65 67 73 79 84 82 80 78 78 83 89 92 91 90 90 91 93 92 93 93 93 93 93 94 94 95 95 94 93 90 85 81 77 75 73 73 73 73 74 74 75 76 75 74 72 70 69 69 69 69 67 66 64 63 63 64 65 65 65 65 66 69 73 76 78
47 50 56 63 71 77 81 84 86 87 89 90 88 85 80 75 71 68 67 66 66 67 67 65 64 64 63 63 63 63 63 62 62 63 64 64 65 66 68 69 72 76 81 80 78 77 79 84 90 93 92 92 91 91 91 91 92 92 92 92 93 93 93 94 95 95 94 92 89 86 82 79 77 75 74 74 74 74 74 74 73 72 70 69 69 69 70 69 68 67 65 65 64 65 66 67 67 67 67 70 73 75 77
44 47 51 56 63 70 76 79 82 84 85 87 87 87 85 80 75 71 67 66 65 65 65 65 65 64 63 62 61 62 63 63 63 64 66 68 69 70 71 71 72 75 80 80 79 78 80 86 91 93 93 93 92 91 90 89 90 90 92 91 92 93 93 93 94 94 94 94 93 90 87 84 81 79 78 77 76 75 74 73 73 72 71 70 70 70 71 71 70 69 67 65 65 66 67 67 67 66 65 67 69 71 73
39 43 47 51 56 62 69 74 78 80 81 83 84 85 85 83 79 75 70 67 65 65 65 65 64 64 64 63 62 63 66 64 64 65 66 68 70 72 74 73 73 74 78 80 80 80 82 87 91 93 93 93 93 92 91 90 89 88 90 92 92 93 93 93 93 94 94 95 95 94 92 89 87 86 85 83 81 79 77 76 75 74 72 71 71 72 72 72 72 70 68 67 67 67 67 67 65 63 62 63 64 65 67
33 37 41 45 50 55 61 67 72 76 78 79 81 82 84 84 82 78 73 69 66 65 65 64 64 63 63 63 63 63 65 65 65 66 67 69 70 72 74 74 74 74 76 79 80 81 84 88 91 93 93 93 93 93 94 92 91 89 90 91 92 92 93 93 93 93 94 94 95 95 95 94 93 92 92 90 88 85 82 80 78 76 73 71 71 72 73 73 72 71 70 69 69 68 67 65 64 62 61 61 61 61 63